Time,TemperatureF,DewpointF,PressureIn,WindDirection,WindDirectionDegrees,WindSpeedMPH,WindSpeedGustMPH,Humidity,HourlyPrecipIn,Conditions,Clouds,dailyrainin,SoftwareType,DateUTC
2013-01-17 00:04:00,33.0,30.0,30.03,WSW,253,4.0,8.0,87,0.00,,,0.54,,2013-01-17 05:04:00,
2013-01-17 00:12:00,33.0,30.0,30.03,WSW,253,4.0,8.0,87,0.00,,,0.54,,2013-01-17 05:12:00,
2013-01-17 00:22:00,34.0,31.0,30.04,West,267,4.0,6.0,87,0.00,,,0.52,,2013-01-17 05:22:00,
2013-01-17 00:33:00,33.0,29.0,30.04,WSW,237,3.0,7.0,86,0.00,,,0.52,,2013-01-17 05:33:00,
2013-01-17 00:42:00,33.0,29.0,30.04,WSW,237,3.0,7.0,86,0.00,,,0.52,,2013-01-17 05:42:00,
2013-01-17 00:53:00,34.0,30.0,30.05,SW,234,3.0,10.0,85,0.00,,,0.52,,2013-01-17 05:53:00,
2013-01-17 01:02:00,34.0,30.0,30.06,WSW,247,4.0,8.0,85,0.00,,,0.52,,2013-01-17 06:02:00,
2013-01-17 01:12:00,34.0,30.0,30.06,WSW,244,4.0,8.0,85,0.00,,,0.50,,2013-01-17 06:12:00,
2013-01-17 01:22:00,34.0,30.0,30.06,WSW,244,4.0,8.0,85,0.00,,,0.50,,2013-01-17 06:22:00,
2013-01-17 01:32:00,33.0,29.0,30.06,SSW,205,3.0,6.0,85,0.00,,,0.50,,2013-01-17 06:32:00,
2013-01-17 01:42:00,33.0,29.0,30.06,SSW,205,3.0,6.0,85,0.00,,,0.50,,2013-01-17 06:42:00,
2013-01-17 01:53:00,33.0,29.0,30.06,WSW,248,3.0,5.0,85,0.00,,,0.50,,2013-01-17 06:53:00,
2013-01-17 02:02:00,33.0,29.0,30.07,West,265,3.0,8.0,85,0.00,,,0.50,,2013-01-17 07:02:00,
2013-01-17 02:12:00,33.0,29.0,30.07,West,265,3.0,8.0,85,0.00,,,0.50,,2013-01-17 07:12:00,
2013-01-17 02:22:00,33.0,29.0,30.06,WSW,249,5.0,7.0,85,0.00,,,0.48,,2013-01-17 07:22:00,
2013-01-17 02:33:00,33.0,29.0,30.07,WSW,251,4.0,7.0,85,0.00,,,0.48,,2013-01-17 07:33:00,
2013-01-17 02:42:00,33.0,29.0,30.07,WSW,251,4.0,7.0,85,0.00,,,0.48,,2013-01-17 07:42:00,
2013-01-17 02:53:00,33.0,29.0,30.07,WSW,257,4.0,7.0,85,0.00,,,0.48,,2013-01-17 07:53:00,
2013-01-17 03:02:00,33.0,29.0,30.08,WSW,240,3.0,7.0,84,0.00,,,0.48,,2013-01-17 08:02:00,
2013-01-17 03:12:00,33.0,29.0,30.08,WSW,240,3.0,7.0,84,0.00,,,0.48,,2013-01-17 08:12:00,
2013-01-17 03:22:00,33.0,29.0,30.08,WSW,248,5.0,8.0,84,0.00,,,0.45,,2013-01-17 08:22:00,
2013-01-17 03:32:00,33.0,28.0,30.08,WSW,253,4.0,9.0,83,0.00,,,0.45,,2013-01-17 08:32:00,
2013-01-17 03:43:00,33.0,28.0,30.08,WSW,253,4.0,9.0,83,0.00,,,0.45,,2013-01-17 08:43:00,
2013-01-17 03:53:00,33.0,28.0,30.09,WSW,240,3.0,8.0,83,0.00,,,0.45,,2013-01-17 08:53:00,
2013-01-17 04:02:00,33.0,28.0,30.10,West,263,4.0,9.0,82,0.00,,,0.45,,2013-01-17 09:02:00,
2013-01-17 04:12:00,33.0,28.0,30.10,West,263,4.0,9.0,82,0.00,,,0.45,,2013-01-17 09:12:00,
2013-01-17 04:22:00,33.0,28.0,30.10,WSW,246,6.0,11.0,82,0.00,,,0.43,,2013-01-17 09:22:00,
2013-01-17 04:32:00,33.0,28.0,30.10,West,262,6.0,9.0,83,0.00,,,0.43,,2013-01-17 09:32:00,
2013-01-17 04:42:00,33.0,28.0,30.10,West,262,6.0,9.0,83,0.00,,,0.43,,2013-01-17 09:42:00,
2013-01-17 04:53:00,33.0,28.0,30.10,WSW,243,4.0,8.0,83,0.00,,,0.43,,2013-01-17 09:53:00,
2013-01-17 05:02:00,33.0,28.0,30.10,WSW,248,5.0,8.0,83,0.00,,,0.43,,2013-01-17 10:02:00,
2013-01-17 05:12:00,33.0,28.0,30.10,WSW,248,5.0,8.0,83,0.00,,,0.43,,2013-01-17 10:12:00,
2013-01-17 05:22:00,33.0,28.0,30.11,SW,217,3.0,7.0,83,0.00,,,0.40,,2013-01-17 10:22:00,
2013-01-17 05:32:00,32.0,28.0,30.11,SW,229,4.0,7.0,84,0.00,,,0.40,,2013-01-17 10:32:00,
2013-01-17 05:42:00,32.0,28.0,30.11,SW,229,4.0,7.0,84,0.00,,,0.40,,2013-01-17 10:42:00,
2013-01-17 05:53:00,32.0,28.0,30.11,WSW,244,2.0,5.0,84,0.00,,,0.40,,2013-01-17 10:53:00,
2013-01-17 06:03:00,32.0,28.0,30.11,WSW,242,3.0,7.0,84,0.00,,,0.40,,2013-01-17 11:03:00,
2013-01-17 06:12:00,32.0,28.0,30.11,WSW,242,3.0,7.0,84,0.00,,,0.40,,2013-01-17 11:12:00,
2013-01-17 06:22:00,32.0,28.0,30.12,SW,236,1.0,5.0,84,0.00,,,0.37,,2013-01-17 11:22:00,
2013-01-17 06:33:00,32.0,28.0,30.12,SW,236,3.0,6.0,84,0.00,,,0.37,,2013-01-17 11:33:00,
2013-01-17 06:43:00,32.0,28.0,30.12,SW,236,3.0,6.0,84,0.00,,,0.37,,2013-01-17 11:43:00,
2013-01-17 06:53:00,32.0,28.0,30.12,WSW,248,4.0,8.0,84,0.00,,,0.37,,2013-01-17 11:53:00,
2013-01-17 07:02:00,32.0,28.0,30.12,WSW,246,4.0,6.0,84,0.00,,,0.37,,2013-01-17 12:02:00,
2013-01-17 07:12:00,32.0,28.0,30.12,WSW,246,4.0,6.0,84,0.00,,,0.37,,2013-01-17 12:12:00,
2013-01-17 07:23:00,32.0,28.0,30.12,West,259,2.0,5.0,84,0.00,,,0.33,,2013-01-17 12:23:00,
2013-01-17 07:33:00,32.0,28.0,30.13,West,261,1.0,4.0,84,0.00,,,0.33,,2013-01-17 12:33:00,
2013-01-17 07:43:00,32.0,28.0,30.13,West,261,1.0,4.0,84,0.00,,,0.33,,2013-01-17 12:43:00,
2013-01-17 07:53:00,32.0,28.0,30.13,WSW,238,2.0,6.0,84,0.00,,,0.33,,2013-01-17 12:53:00,
2013-01-17 08:03:00,32.0,28.0,30.14,SW,234,2.0,5.0,85,0.00,,,0.33,,2013-01-17 13:03:00,
2013-01-17 08:12:00,32.0,28.0,30.14,SW,234,2.0,5.0,85,0.00,,,0.33,,2013-01-17 13:12:00,
2013-01-17 08:23:00,32.0,28.0,30.15,WSW,255,1.0,3.0,85,0.00,,,0.25,,2013-01-17 13:23:00,
2013-01-17 08:33:00,32.0,28.0,30.16,WSW,240,1.0,4.0,85,0.00,,,0.25,,2013-01-17 13:33:00,
2013-01-17 08:43:00,32.0,28.0,30.16,WSW,240,1.0,4.0,85,0.00,,,0.25,,2013-01-17 13:43:00,
2013-01-17 08:53:00,32.0,28.0,30.17,West,264,2.0,6.0,85,0.00,,,0.25,,2013-01-17 13:53:00,
2013-01-17 09:03:00,32.0,28.0,30.18,WSW,238,2.0,4.0,85,0.00,,,0.25,,2013-01-17 14:03:00,
2013-01-17 09:12:00,32.0,28.0,30.18,WSW,238,2.0,4.0,85,0.00,,,0.25,,2013-01-17 14:12:00,
2013-01-17 09:23:00,32.0,28.0,30.19,SW,227,2.0,5.0,85,0.00,,,0.18,,2013-01-17 14:23:00,
2013-01-17 09:33:00,32.0,28.0,30.19,SW,232,2.0,4.0,85,0.00,,,0.18,,2013-01-17 14:33:00,
2013-01-17 09:43:00,32.0,28.0,30.19,SW,232,2.0,4.0,85,0.00,,,0.18,,2013-01-17 14:43:00,
2013-01-17 09:53:00,32.0,28.0,30.19,WSW,247,3.0,5.0,85,0.00,,,0.18,,2013-01-17 14:53:00,
2013-01-17 10:03:00,32.0,28.0,30.20,WSW,248,1.0,6.0,85,0.00,,,0.18,,2013-01-17 15:03:00,
2013-01-17 10:12:00,32.0,28.0,30.20,WSW,248,1.0,6.0,85,0.00,,,0.18,,2013-01-17 15:12:00,
2013-01-17 10:23:00,33.0,29.0,30.19,WSW,237,4.0,6.0,84,0.00,,,0.13,,2013-01-17 15:23:00,
2013-01-17 10:33:00,33.0,29.0,30.19,SW,236,3.0,5.0,85,0.00,,,0.13,,2013-01-17 15:33:00,
2013-01-17 10:43:00,33.0,29.0,30.19,SW,236,3.0,5.0,85,0.00,,,0.13,,2013-01-17 15:43:00,
2013-01-17 10:53:00,33.0,29.0,30.20,WSW,241,3.0,4.0,85,0.00,,,0.13,,2013-01-17 15:53:00,
2013-01-17 11:03:00,33.0,29.0,30.19,WSW,240,2.0,3.0,85,0.00,,,0.13,,2013-01-17 16:03:00,
2013-01-17 11:12:00,33.0,29.0,30.19,WSW,240,2.0,3.0,85,0.00,,,0.13,,2013-01-17 16:12:00,
2013-01-17 11:23:00,33.0,29.0,30.19,WSW,240,2.0,4.0,84,0.00,,,0.10,,2013-01-17 16:23:00,
2013-01-17 11:33:00,33.0,29.0,30.18,SW,230,2.0,6.0,84,0.00,,,0.10,,2013-01-17 16:33:00,
2013-01-17 11:43:00,33.0,29.0,30.18,SW,230,2.0,6.0,84,0.00,,,0.10,,2013-01-17 16:43:00,
2013-01-17 11:53:00,34.0,30.0,30.17,West,269,2.0,7.0,84,0.00,,,0.10,,2013-01-17 16:53:00,
2013-01-17 12:03:00,34.0,29.0,30.17,WSW,239,4.0,6.0,83,0.00,,,0.10,,2013-01-17 17:03:00,
2013-01-17 12:13:00,34.0,29.0,30.17,WSW,239,4.0,6.0,83,0.00,,,0.10,,2013-01-17 17:13:00,
2013-01-17 12:23:00,34.0,29.0,30.15,WSW,241,1.0,5.0,83,0.00,,,0.06,,2013-01-17 17:23:00,
2013-01-17 12:33:00,34.0,29.0,30.14,WSW,252,3.0,5.0,82,0.00,,,0.06,,2013-01-17 17:33:00,
2013-01-17 12:43:00,34.0,29.0,30.14,WSW,252,3.0,5.0,82,0.00,,,0.06,,2013-01-17 17:43:00,
2013-01-17 12:53:00,35.0,30.0,30.14,WSW,242,2.0,5.0,81,0.00,,,0.06,,2013-01-17 17:53:00,
2013-01-17 13:04:00,35.0,29.0,30.13,WNW,293,1.0,3.0,79,0.00,,,0.06,,2013-01-17 18:04:00,
2013-01-17 13:12:00,35.0,29.0,30.13,WNW,293,1.0,3.0,79,0.00,,,0.06,,2013-01-17 18:12:00,
2013-01-17 13:23:00,35.0,29.0,30.13,WNW,286,1.0,5.0,79,0.00,,,0.04,,2013-01-17 18:23:00,
2013-01-17 13:33:00,35.0,29.0,30.13,SW,225,2.0,5.0,80,0.00,,,0.04,,2013-01-17 18:33:00,
2013-01-17 13:43:00,35.0,29.0,30.13,SW,225,2.0,5.0,80,0.00,,,0.04,,2013-01-17 18:43:00,
2013-01-17 13:53:00,35.0,29.0,30.12,WSW,241,1.0,4.0,79,0.00,,,0.04,,2013-01-17 18:53:00,
2013-01-17 14:03:00,35.0,29.0,30.11,South,190,1.0,3.0,79,0.00,,,0.04,,2013-01-17 19:03:00,
2013-01-17 14:13:00,35.0,29.0,30.11,South,190,1.0,3.0,79,0.00,,,0.04,,2013-01-17 19:13:00,
2013-01-17 14:23:00,35.0,29.0,30.11,South,184,0.0,2.0,78,0.01,,,0.03,,2013-01-17 19:23:00,
2013-01-17 14:33:00,35.0,29.0,30.11,WSW,246,1.0,5.0,78,0.01,,,0.03,,2013-01-17 19:33:00,
2013-01-17 14:43:00,35.0,29.0,30.11,WSW,246,1.0,5.0,78,0.01,,,0.03,,2013-01-17 19:43:00,
2013-01-17 14:53:00,35.0,29.0,30.12,WNW,282,1.0,4.0,78,0.01,,,0.03,,2013-01-17 19:53:00,
2013-01-17 15:03:00,35.0,29.0,30.12,WNW,292,1.0,5.0,80,0.01,,,0.03,,2013-01-17 20:03:00,
2013-01-17 15:12:00,35.0,29.0,30.12,WNW,292,1.0,5.0,80,0.01,,,0.03,,2013-01-17 20:12:00,
2013-01-17 15:23:00,35.0,29.0,30.12,WNW,290,2.0,4.0,79,0.00,,,0.03,,2013-01-17 20:23:00,
2013-01-17 15:33:00,35.0,29.0,30.14,West,259,2.0,4.0,80,0.00,,,0.03,,2013-01-17 20:33:00,
2013-01-17 15:43:00,35.0,29.0,30.14,West,259,2.0,4.0,80,0.00,,,0.03,,2013-01-17 20:43:00,
2013-01-17 15:54:00,35.0,30.0,30.13,West,269,0.0,5.0,81,0.00,,,0.03,,2013-01-17 20:54:00,
2013-01-17 16:03:00,35.0,30.0,30.12,NW,320,2.0,5.0,81,0.00,,,0.03,,2013-01-17 21:03:00,
2013-01-17 16:13:00,35.0,30.0,30.12,NW,320,2.0,5.0,81,0.00,,,0.03,,2013-01-17 21:13:00,
2013-01-17 16:23:00,35.0,30.0,30.13,WNW,292,2.0,4.0,81,0.00,,,0.02,,2013-01-17 21:23:00,
2013-01-17 16:34:00,34.0,29.0,30.14,WSW,257,2.0,4.0,82,0.00,,,0.02,,2013-01-17 21:34:00,
2013-01-17 16:43:00,34.0,29.0,30.14,WSW,257,2.0,4.0,82,0.00,,,0.02,,2013-01-17 21:43:00,
2013-01-17 16:53:00,34.0,29.0,30.14,WSW,258,1.0,3.0,82,0.00,,,0.02,,2013-01-17 21:53:00,
2013-01-17 17:03:00,34.0,29.0,30.14,West,266,2.0,3.0,83,0.00,,,0.02,,2013-01-17 22:03:00,
2013-01-17 17:12:00,34.0,29.0,30.14,West,266,2.0,3.0,83,0.00,,,0.02,,2013-01-17 22:12:00,
2013-01-17 17:23:00,34.0,29.0,30.14,WSW,251,2.0,3.0,83,0.00,,,0.01,,2013-01-17 22:23:00,
2013-01-17 17:33:00,34.0,30.0,30.15,WSW,243,2.0,4.0,84,0.00,,,0.01,,2013-01-17 22:33:00,
2013-01-17 17:43:00,34.0,30.0,30.15,WSW,243,2.0,4.0,84,0.00,,,0.01,,2013-01-17 22:43:00,
2013-01-17 17:53:00,34.0,30.0,30.16,WSW,254,2.0,3.0,84,0.00,,,0.01,,2013-01-17 22:53:00,
2013-01-17 18:03:00,33.0,29.0,30.16,West,267,2.0,4.0,85,0.00,,,0.01,,2013-01-17 23:03:00,
2013-01-17 18:12:00,33.0,29.0,30.16,West,267,2.0,4.0,85,0.00,,,0.01,,2013-01-17 23:12:00,
2013-01-17 18:23:00,33.0,29.0,30.16,West,269,2.0,4.0,85,0.00,,,0.01,,2013-01-17 23:23:00,
2013-01-17 18:33:00,33.0,29.0,30.16,West,267,2.0,4.0,84,0.00,,,0.01,,2013-01-17 23:33:00,
2013-01-17 18:43:00,33.0,29.0,30.16,West,267,2.0,4.0,84,0.00,,,0.01,,2013-01-17 23:43:00,
2013-01-17 18:53:00,33.0,29.0,30.16,West,263,0.0,3.0,84,0.00,,,0.01,,2013-01-17 23:53:00,
2013-01-17 19:03:00,33.0,29.0,30.14,WNW,302,1.0,3.0,84,0.00,,,0.01,,2013-01-18 00:03:00,
2013-01-17 19:12:00,33.0,29.0,30.14,WNW,302,1.0,3.0,84,0.00,,,0.01,,2013-01-18 00:12:00,
2013-01-17 19:23:00,33.0,29.0,30.16,WSW,250,2.0,4.0,85,0.00,,,0.01,,2013-01-18 00:23:00,
2013-01-17 19:32:00,33.0,29.0,30.16,WSW,250,2.0,4.0,85,0.00,,,0.01,,2013-01-18 00:32:00,
2013-01-17 19:42:00,33.0,29.0,30.17,West,263,2.0,5.0,86,0.00,,,0.01,,2013-01-18 00:42:00,
2013-01-17 19:53:00,33.0,29.0,30.17,WNW,291,2.0,4.0,86,0.00,,,0.01,,2013-01-18 00:53:00,
2013-01-17 20:03:00,32.0,28.0,30.19,WNW,302,2.0,6.0,86,0.00,,,0.01,,2013-01-18 01:03:00,
2013-01-17 20:13:00,32.0,28.0,30.19,WNW,302,2.0,6.0,86,0.00,,,0.01,,2013-01-18 01:13:00,
2013-01-17 20:23:00,32.0,29.0,30.16,West,277,2.0,3.0,87,0.00,,,0.01,,2013-01-18 01:23:00,
2013-01-17 20:33:00,32.0,29.0,30.19,WSW,244,3.0,7.0,87,0.00,,,0.01,,2013-01-18 01:33:00,
2013-01-17 20:43:00,32.0,29.0,30.19,WSW,244,3.0,7.0,87,0.00,,,0.01,,2013-01-18 01:43:00,
2013-01-17 20:53:00,32.0,29.0,30.18,WSW,248,1.0,5.0,87,0.00,,,0.01,,2013-01-18 01:53:00,
2013-01-17 21:03:00,32.0,29.0,30.16,WSW,248,0.0,3.0,87,0.00,,,0.01,,2013-01-18 02:03:00,
2013-01-17 21:12:00,32.0,29.0,30.16,WSW,248,0.0,3.0,87,0.00,,,0.01,,2013-01-18 02:12:00,
2013-01-17 21:22:00,32.0,29.0,30.16,West,271,1.0,3.0,87,0.00,,,0.01,,2013-01-18 02:22:00,
2013-01-17 21:33:00,32.0,29.0,30.16,SW,222,0.0,2.0,87,0.00,,,0.01,,2013-01-18 02:33:00,
2013-01-17 21:42:00,32.0,29.0,30.16,SW,222,0.0,2.0,87,0.00,,,0.01,,2013-01-18 02:42:00,
2013-01-17 21:53:00,32.0,29.0,30.17,WSW,249,1.0,3.0,88,0.00,,,0.01,,2013-01-18 02:53:00,
2013-01-17 22:02:00,32.0,29.0,30.17,West,267,1.0,3.0,88,0.00,,,0.01,,2013-01-18 03:02:00,
2013-01-17 22:12:00,32.0,29.0,30.17,West,267,1.0,3.0,88,0.00,,,0.01,,2013-01-18 03:12:00,
2013-01-17 22:23:00,32.0,29.0,30.16,WSW,248,1.0,2.0,88,0.00,,,0.01,,2013-01-18 03:23:00,
2013-01-17 22:33:00,32.0,29.0,30.16,WSW,244,2.0,5.0,88,0.00,,,0.01,,2013-01-18 03:33:00,
2013-01-17 22:42:00,32.0,29.0,30.16,WSW,244,2.0,5.0,88,0.00,,,0.01,,2013-01-18 03:42:00,
2013-01-17 22:53:00,32.0,29.0,30.16,West,265,4.0,7.0,88,0.00,,,0.01,,2013-01-18 03:53:00,
2013-01-17 23:02:00,32.0,29.0,30.16,WSW,244,3.0,5.0,88,0.00,,,0.01,,2013-01-18 04:02:00,
2013-01-17 23:12:00,32.0,29.0,30.16,WSW,244,3.0,5.0,88,0.00,,,0.01,,2013-01-18 04:12:00,
2013-01-17 23:22:00,32.0,29.0,30.16,WSW,249,3.0,5.0,88,0.00,,,0.01,,2013-01-18 04:22:00,
2013-01-17 23:33:00,32.0,29.0,30.15,SW,233,3.0,7.0,87,0.00,,,0.01,,2013-01-18 04:33:00,
2013-01-17 23:42:00,32.0,29.0,30.15,SW,233,3.0,7.0,87,0.00,,,0.01,,2013-01-18 04:42:00,
2013-01-17 23:53:00,32.0,28.0,30.16,WSW,257,6.0,10.0,85,0.00,,,0.01,,2013-01-18 04:53:00,